Temp
-9 -9 -9 -9 -9 -9 -10 -10 -9 -9 -9 -8 -9 -9 -9 -9 -11 -10 -10 -10 -10 -9 -9 -10 -10 -10 -10 -10 -10 -11 -11 -11 -11 -11 -10 -10 -10 -10 -10 -10 -10 -10 -10 -10 -10 -10 -11 -11 -11
-9 -10 -10 -9 -9 -10 -10 -10 -9 -8 -9 -9 -9 -9 -10 -10 -10 -10 -9 -9 -9 -9 -9 -10 -10 -10 -10 -10 -10 -11 -11 -11 -11 -11 -10 -10 -10 -10 -10 -10 -10 -10 -10 -10 -10 -10 -10 -11 -11
-10 -10 -10 -10 -9 -10 -10 -10 -9 -9 -9 -9 -9 -10 -11 -11 -10 -10 -10 -10 -10 -10 -10 -10 -10 -10 -10 -10 -10 -10 -11 -11 -11 -11 -10 -10 -10 -11 -11 -10 -10 -10 -10 -10 -10 -10 -10 -11 -11
-10 -10 -10 -10 -11 -11 -11 -10 -9 -9 -10 -10 -10 -10 -10 -10 -10 -10 -10 -10 -10 -10 -10 -10 -10 -10 -10 -10 -10 -10 -11 -11 -11 -11 -11 -11 -11 -11 -11 -11 -11 -11 -11 -11 -11 -11 -10 -11 -11
-10 -10 -10 -10 -11 -11 -10 -10 -10 -9 -10 -11 -11 -11 -10 -10 -10 -10 -10 -10 -10 -11 -10 -10 -10 -10 -10 -10 -10 -10 -11 -11 -11 -11 -11 -11 -11 -11 -11 -11 -11 -11 -11 -10 -11 -11 -11 -11 -11
-10 -10 -10 -11 -12 -12 -10 -10 -10 -10 -11 -11 -11 -11 -10 -10 -10 -10 -10 -11 -11 -11 -10 -10 -10 -10 -10 -10 -10 -10 -10 -11 -11 -11 -11 -11 -10 -11 -11 -11 -11 -11 -11 -11 -11 -11 -11 -11 -11
-10 -10 -10 -12 -12 -12 -11 -10 -11 -11 -11 -11 -12 -12 -10 -10 -10 -11 -11 -11 -11 -11 -10 -10 -10 -10 -10 -10 -10 -10 -11 -11 -11 -11 -11 -11 -11 -11 -11 -12 -11 -11 -11 -11 -11 -11 -11 -11 -11
-10 -10 -10 -11 -11 -10 -12 -11 -11 -11 -12 -11 -12 -12 -10 -10 -11 -11 -11 -11 -11 -10 -10 -10 -10 -10 -10 -10 -10 -10 -10 -11 -11 -11 -11 -11 -11 -11 -11 -12 -12 -11 -11 -11 -11 -11 -11 -11 -11
-10 -10 -10 -11 -11 -11 -11 -11 -10 -11 -12 -11 -11 -11 -10 -11 -11 -11 -11 -11 -11 -10 -9 -10 -10 -10 -10 -10 -10 -10 -11 -11 -11 -11 -11 -11 -11 -11 -12 -12 -12 -12 -12 -11 -11 -11 -11 -11 -11
-10 -10 -10 -12 -10 -11 -10 -11 -11 -11 -11 -11 -11 -11 -11 -11 -11 -11 -11 -11 -10 -10 -10 -10 -10 -10 -10 -10 -10 -10 -10 -10 -11 -11 -11 -11 -11 -11 -12 -11 -11 -12 -12 -12 -11 -11 -12 -12 -12
-10 -10 -11 -10 -11 -10 -11 -10 -10 -11 -10 -11 -11 -10 -10 -11 -11 -11 -11 -11 -11 -10 -10 -10 -10 -10 -10 -10 -10 -10 -10 -10 -10 -11 -11 -11 -11 -11 -11 -11 -11 -11 -12 -12 -12 -12 -12 -12 -12
-10 -10 -10 -10 -10 -10 -10 -10 -10 -10 -10 -11 -10 -10 -10 -10 -10 -11 -11 -10 -11 -10 -10 -10 -10 -10 -10 -10 -10 -10 -10 -10 -10 -11 -11 -11 -11 -11 -11 -11 -11 -11 -11 -12 -12 -12 -12 -12 -12
-10 -10 -10 -10 -10 -10 -10 -10 -10 -10 -10 -10 -10 -10 -10 -10 -10 -10 -11 -11 -11 -11 -11 -11 -11 -10 -10 -10 -10 -10 -10 -10 -10 -10 -10 -10 -11 -11 -11 -11 -11 -11 -12 -12 -12 -12 -12 -12 -12
-10 -10 -10 -10 -10 -10 -10 -10 -10 -10 -11 -10 -10 -10 -10 -10 -10 -11 -10 -10 -10 -10 -11 -11 -11 -11 -11 -10 -10 -11 -10 -10 -10 -10 -10 -11 -11 -11 -11 -11 -11 -11 -11 -12 -12 -12 -12 -12 -12
-10 -10 -10 -10 -10 -10 -10 -10 -10 -11 -10 -10 -10 -10 -10 -10 -10 -10 -11 -11 -11 -11 -11 -11 -11 -11 -10 -10 -10 -10 -10 -11 -11 -11 -10 -11 -11 -11 -12 -11 -11 -11 -11 -12 -12 -12 -12 -12 -12
-11 -10 -10 -11 -10 -10 -10 -10 -11 -10 -10 -10 -10 -10 -10 -10 -10 -10 -10 -10 -10 -10 -10 -10 -10 -10 -10 -10 -10 -10 -10 -10 -11 -11 -11 -11 -11 -11 -11 -11 -12 -12 -12 -11 -12 -12 -12 -12 -12
-11 -10 -10 -11 -11 -11 -10 -11 -12 -9 -10 -10 -11 -10 -10 -10 -10 -10 -10 -10 -10 -10 -10 -10 -10 -10 -10 -10 -10 -11 -11 -11 -11 -11 -11 -11 -11 -11 -11 -11 -11 -11 -11 -11 -11 -11 -12 -12 -12
-11 -11 -11 -12 -11 -11 -10 -11 -12 -9 -10 -10 -9 -10 -11 -11 -10 -10 -10 -10 -10 -10 -10 -10 -10 -10 -10 -10 -10 -11 -11 -11 -11 -11 -11 -11 -11 -11 -11 -12 -12 -12 -12 -12 -12 -12 -12 -11 -12
-12 -12 -12 -13 -12 -10 -11 -10 -11 -11 -10 -10 -10 -10 -10 -10 -10 -10 -11 -11 -11 -11 -11 -11 -11 -11 -11 -11 -11 -11 -11 -11 -11 -11 -11 -11 -11 -12 -12 -12 -12 -12 -12 -12 -12 -12 -12 -12 -12
-12 -12 -11 -12 -12 -11 -11 -11 -11 -11 -10 -10 -10 -10 -10 -10 -10 -10 -11 -11 -11 -11 -11 -11 -11 -11 -11 -11 -11 -12 -12 -12 -12 -12 -11 -12 -12 -12 -12 -12 -12 -12 -12 -12 -12 -13 -13 -13 -13
-12 -12 -12 -12 -12 -11 -11 -10 -11 -11 -11 -11 -11 -10 -10 -10 -10 -11 -11 -11 -11 -11 -11 -11 -11 -11 -11 -11 -12 -12 -12 -12 -12 -12 -12 -12 -12 -12 -12 -12 -13 -13 -12 -13 -13 -13 -13 -13 -13
-12 -13 -13 -13 -12 -12 -11 -10 -11 -11 -11 -10 -11 -11 -10 -10 -10 -11 -11 -11 -11 -11 -12 -12 -12 -11 -12 -12 -12 -12 -12 -12 -12 -12 -12 -13 -13 -13 -13 -13 -13 -13 -13 -13 -14 -14 -14 -14 -13
-13 -14 -13 -13 -13 -12 -12 -11 -10 -11 -10 -10 -11 -11 -11 -11 -11 -11 -11 -11 -11 -11 -12 -12 -12 -12 -12 -11 -11 -12 -12 -12 -12 -12 -12 -12 -13 -13 -13 -13 -13 -13 -13 -13 -13 -14 -14 -14 -14
-13 -14 -14 -13 -13 -12 -11 -12 -10 -12 -12 -10 -10 -11 -11 -11 -11 -11 -12 -12 -12 -12 -12 -11 -11 -11 -11 -11 -11 -11 -11 -12 -12 -13 -13 -13 -13 -13 -13 -13 -13 -14 -14 -14 -14 -14 -14 -15 -15
-13 -14 -14 -13 -13 -11 -12 -12 -10 -12 -12 -11 -10 -11 -11 -11 -12 -12 -12 -12 -12 -12 -11 -11 -11 -11 -11 -11 -11 -11 -11 -12 -12 -12 -12 -13 -13 -14 -14 -14 -14 -14 -14 -14 -14 -14 -14 -14 -15
-13 -14 -14 -13 -13 -13 -13 -12 -13 -11 -10 -11 -11 -11 -11 -11 -11 -11 -12 -12 -11 -11 -11 -11 -11 -11 -11 -11 -12 -12 -12 -12 -12 -13 -13 -13 -13 -13 -14 -14 -15 -15 -16 -16 -16 -16 -15 -15 -15
-13 -13 -14 -14 -12 -12 -12 -12 -11 -11 -11 -11 -11 -11 -11 -11 -11 -11 -11 -11 -11 -12 -11 -11 -11 -11 -11 -12 -12 -12 -12 -13 -12 -12 -12 -13 -13 -13 -14 -15 -16 -16 -16 -16 -17 -17 -17 -17 -16
-13 -14 -13 -12 -12 -12 -11 -11 -11 -10 -11 -11 -11 -11 -11 -12 -12 -12 -12 -12 -12 -12 -12 -12 -12 -12 -12 -12 -12 -13 -13 -13 -13 -13 -14 -14 -15 -15 -15 -16 -16 -16 -16 -16 -17 -17 -17 -17 -17
-13 -12 -12 -12 -12 -12 -12 -13 -13 -11 -11 -11 -11 -11 -11 -12 -12 -12 -12 -12 -12 -13 -13 -12 -12 -12 -12 -12 -12 -12 -12 -13 -13 -13 -14 -15 -15 -16 -16 -16 -17 -17 -17 -17 -17 -16 -16 -16 -16
-14 -13 -14 -13 -13 -13 -13 -13 -13 -12 -12 -12 -11 -11 -12 -12 -13 -13 -13 -13 -13 -13 -12 -13 -13 -13 -12 -12 -12 -12 -12 -13 -13 -15 -15 -15 -16 -17 -17 -17 -17 -16 -16 -16 -16 -16 -16 -16 -16
Height
5845 5844 5844 5846 5850 5849 5852 5850 5849 5850 5850 5850 5851 5853 5854 5856 5856 5858 5852 5856 5857 5858 5858 5858 5859 5859 5858 5858 5857 5856 5856 5855 5854 5853 5852 5851 5850 5850 5849 5848 5847 5846 5845 5844 5843 5842 5841 5840 5840
5842 5843 5842 5843 5847 5851 5853 5847 5847 5847 5848 5848 5849 5850 5851 5855 5852 5852 5853 5854 5855 5856 5857 5857 5857 5857 5857 5855 5854 5854 5853 5853 5852 5851 5850 5849 5849 5849 5848 5847 5846 5845 5844 5842 5841 5840 5839 5838 5838
5839 5840 5841 5841 5844 5852 5851 5846 5845 5844 5844 5845 5847 5847 5847 5845 5848 5850 5851 5852 5853 5854 5854 5853 5853 5854 5854 5853 5852 5851 5851 5851 5851 5850 5849 5848 5847 5847 5847 5845 5844 5844 5843 5842 5841 5839 5838 5837 5836
5835 5837 5838 5839 5844 5845 5839 5840 5842 5842 5842 5843 5845 5845 5844 5845 5847 5848 5849 5850 5850 5851 5851 5851 5851 5851 5851 5849 5848 5847 5847 5847 5847 5848 5847 5847 5846 5845 5845 5843 5843 5843 5842 5841 5840 5839 5837 5836 5834
5831 5833 5834 5835 5838 5836 5836 5837 5839 5840 5839 5841 5842 5842 5842 5844 5845 5846 5846 5846 5847 5847 5847 5847 5847 5847 5847 5846 5845 5844 5844 5844 5845 5845 5845 5844 5843 5843 5842 5842 5840 5841 5840 5839 5838 5837 5836 5835 5833
5827 5830 5831 5834 5835 5830 5832 5834 5835 5836 5837 5839 5839 5839 5839 5841 5843 5843 5844 5843 5843 5843 5843 5843 5842 5843 5843 5842 5842 5842 5842 5841 5841 5842 5842 5842 5841 5840 5840 5840 5839 5839 5838 5838 5837 5836 5835 5834 5832
5824 5826 5828 5830 5831 5827 5826 5831 5831 5834 5834 5835 5836 5839 5836 5838 5839 5840 5841 5841 5840 5840 5840 5840 5839 5839 5839 5838 5838 5838 5838 5839 5839 5839 5838 5838 5839 5838 5838 5838 5837 5837 5836 5835 5834 5834 5833 5831 5830
5819 5821 5823 5825 5826 5828 5816 5827 5828 5830 5830 5833 5835 5836 5832 5835 5837 5838 5838 5837 5836 5835 5836 5836 5836 5836 5835 5835 5834 5834 5834 5835 5836 5836 5836 5835 5836 5836 5835 5835 5834 5834 5833 5832 5831 5831 5830 5829 5828
5815 5818 5820 5822 5821 5823 5813 5823 5824 5825 5826 5829 5829 5829 5830 5833 5833 5834 5834 5833 5832 5831 5831 5831 5831 5832 5832 5831 5831 5831 5831 5831 5832 5832 5832 5832 5833 5833 5832 5832 5831 5831 5831 5830 5829 5828 5828 5827 5826
5812 5813 5816 5816 5815 5816 5813 5819 5819 5822 5824 5824 5824 5826 5827 5829 5830 5830 5830 5828 5828 5827 5826 5827 5827 5828 5829 5829 5828 5828 5827 5828 5828 5828 5829 5829 5829 5829 5829 5828 5828 5828 5827 5827 5826 5826 5825 5824 5823
5807 5808 5809 5809 5811 5811 5810 5813 5815 5818 5819 5820 5820 5822 5824 5825 5826 5826 5826 5825 5825 5824 5823 5823 5823 5825 5825 5825 5825 5826 5826 5826 5826 5826 5827 5826 5825 5825 5824 5825 5825 5824 5824 5823 5823 5822 5822 5821 5821
5802 5802 5803 5804 5805 5805 5805 5807 5810 5814 5815 5814 5816 5819 5820 5821 5821 5822 5822 5822 5821 5821 5822 5821 5820 5821 5821 5822 5822 5822 5822 5822 5823 5824 5824 5823 5823 5823 5822 5823 5822 5821 5820 5819 5817 5817 5816 5817 5817
5796 5796 5797 5798 5800 5800 5800 5803 5806 5808 5810 5812 5813 5815 5816 5816 5817 5818 5818 5818 5817 5818 5818 5817 5816 5817 5818 5818 5819 5819 5818 5818 5818 5819 5818 5819 5818 5819 5818 5818 5818 5818 5818 5817 5816 5815 5813 5811 5810
5790 5791 5792 5794 5794 5795 5796 5798 5800 5803 5805 5807 5808 5810 5812 5813 5813 5814 5814 5814 5814 5813 5814 5814 5813 5813 5813 5814 5814 5815 5815 5815 5815 5815 5815 5814 5814 5814 5813 5813 5812 5812 5813 5813 5812 5812 5811 5810 5809
5785 5786 5786 5788 5790 5790 5791 5793 5796 5797 5800 5801 5803 5805 5807 5808 5808 5808 5809 5810 5809 5809 5808 5809 5809 5810 5809 5809 5809 5810 5810 5810 5811 5810 5811 5810 5808 5807 5807 5806 5807 5807 5808 5807 5807 5807 5807 5806 5806
5778 5779 5781 5784 5784 5786 5786 5790 5789 5791 5794 5795 5798 5800 5800 5802 5802 5803 5803 5804 5804 5803 5803 5803 5804 5805 5805 5805 5805 5805 5806 5806 5805 5805 5805 5804 5803 5802 5802 5800 5800 5800 5802 5802 5801 5802 5801 5800 5800
5773 5774 5775 5777 5779 5779 5782 5785 5780 5786 5788 5789 5793 5793 5795 5795 5796 5798 5798 5798 5798 5798 5799 5799 5800 5799 5800 5799 5799 5799 5798 5799 5799 5800 5800 5800 5799 5798 5797 5796 5796 5795 5794 5795 5795 5794 5794 5793 5793
5768 5767 5768 5769 5771 5773 5774 5778 5777 5777 5782 5783 5784 5787 5788 5789 5790 5791 5792 5792 5792 5792 5793 5793 5793 5793 5793 5793 5794 5793 5793 5793 5792 5792 5793 5793 5793 5792 5792 5790 5788 5788 5787 5787 5787 5787 5786 5785 5786
5757 5757 5760 5759 5764 5766 5767 5769 5771 5770 5773 5775 5776 5778 5780 5781 5782 5784 5785 5785 5785 5786 5786 5786 5786 5786 5786 5787 5787 5786 5786 5786 5785 5783 5784 5784 5783 5783 5783 5783 5782 5780 5780 5779 5778 5778 5778 5778 5775
5750 5750 5752 5755 5756 5757 5759 5760 5763 5763 5764 5766 5768 5769 5770 5773 5774 5777 5777 5777 5778 5777 5777 5777 5778 5778 5779 5780 5779 5778 5778 5777 5776 5775 5773 5773 5772 5772 5771 5770 5770 5769 5769 5769 5768 5769 5768 5768 5768
5741 5741 5745 5747 5747 5748 5750 5752 5757 5757 5754 5758 5761 5759 5762 5764 5767 5769 5769 5770 5769 5770 5770 5770 5770 5770 5770 5770 5769 5770 5769 5768 5766 5765 5764 5763 5761 5761 5760 5760 5759 5757 5756 5757 5756 5756 5756 5755 5755
5730 5734 5735 5736 5738 5737 5742 5739 5746 5744 5744 5749 5751 5752 5752 5755 5758 5759 5760 5761 5761 5762 5763 5762 5762 5762 5762 5761 5761 5760 5758 5757 5755 5754 5753 5753 5752 5751 5750 5749 5747 5746 5744 5743 5743 5743 5742 5740 5740
5721 5722 5720 5722 5726 5727 5730 5730 5735 5738 5735 5741 5744 5743 5744 5746 5747 5749 5750 5751 5754 5754 5755 5754 5754 5753 5752 5751 5750 5748 5746 5744 5743 5742 5741 5740 5739 5739 5737 5736 5734 5733 5731 5729 5729 5728 5728 5728 5726
5708 5709 5709 5712 5716 5713 5722 5721 5724 5727 5731 5726 5734 5737 5737 5738 5739 5740 5741 5742 5743 5744 5745 5744 5743 5742 5740 5739 5738 5736 5734 5732 5731 5729 5729 5727 5726 5725 5723 5721 5720 5719 5718 5717 5714 5712 5712 5713 5712
5693 5700 5700 5701 5702 5700 5714 5712 5717 5719 5717 5714 5721 5728 5729 5730 5730 5731 5732 5732 5733 5732 5732 5731 5731 5730 5728 5727 5725 5723 5721 5718 5716 5714 5712 5709 5707 5706 5705 5704 5703 5702 5701 5700 5699 5698 5698 5696 5695
5683 5688 5690 5690 5695 5698 5703 5699 5705 5701 5704 5707 5710 5715 5718 5719 5720 5721 5721 5721 5722 5722 5721 5720 5718 5717 5716 5714 5712 5708 5705 5703 5700 5698 5696 5694 5692 5690 5688 5687 5685 5684 5682 5680 5678 5677 5677 5677 5676
5674 5673 5684 5682 5683 5684 5688 5691 5689 5693 5695 5696 5701 5702 5705 5708 5709 5709 5710 5710 5710 5710 5709 5708 5706 5705 5702 5700 5698 5694 5691 5688 5686 5683 5681 5678 5675 5672 5671 5668 5666 5664 5664 5662 5660 5660 5660 5659 5660
5660 5665 5670 5667 5670 5673 5674 5680 5680 5679 5682 5685 5686 5690 5693 5696 5698 5699 5699 5699 5697 5695 5694 5694 5692 5689 5687 5684 5683 5680 5677 5673 5671 5668 5665 5661 5659 5656 5653 5651 5649 5647 5646 5645 5642 5642 5641 5637 5639
5652 5653 5657 5661 5664 5664 5667 5672 5671 5669 5670 5672 5674 5678 5681 5683 5685 5685 5685 5684 5682 5681 5680 5678 5675 5672 5669 5667 5665 5663 5659 5657 5653 5650 5646 5643 5641 5638 5636 5633 5631 5628 5626 5623 5620 5619 5618 5616 5617
5641 5645 5647 5648 5651 5659 5659 5661 5658 5658 5661 5662 5662 5663 5665 5666 5666 5666 5666 5666 5664 5663 5661 5659 5657 5657 5655 5652 5649 5646 5642 5637 5633 5630 5627 5624 5620 5616 5612 5609 5605 5602 5598 5593 5589 5588 5585 5581 5582
Wind_Speed
16 13 13 12 11 8 8 20 16 13 16 15 14 11 15 15 17 22 20 20 18 16 18 19 16 13 10 13 9 7 7 10 12 13 12 12 12 12 12 12 10 9 10 12 11 10 10 10 12
16 14 14 13 10 6 11 13 12 12 12 12 11 13 12 11 15 20 22 20 19 16 17 22 22 16 13 13 11 10 9 9 11 13 13 14 15 13 12 13 11 10 12 13 14 12 10 9 11
18 16 15 15 12 7 21 21 13 11 11 10 12 18 15 16 15 16 19 21 20 18 19 23 23 18 16 15 12 12 10 9 11 11 14 13 15 15 14 13 12 11 12 14 14 15 12 9 10
18 18 17 15 10 18 22 20 13 12 11 9 14 20 19 17 16 17 20 23 25 23 25 21 22 22 19 15 13 13 12 10 11 12 14 14 15 16 15 13 13 12 12 13 14 13 13 11 9
17 17 18 18 16 21 25 21 16 14 12 13 17 21 24 20 20 19 20 22 22 22 26 21 21 23 20 18 16 14 14 13 13 14 15 16 16 15 15 14 13 13 14 13 13 13 13 12 11
16 16 17 17 16 25 24 21 17 15 14 14 18 22 23 22 18 16 17 20 23 24 21 18 17 20 19 17 16 15 15 14 14 16 17 16 15 14 13 14 13 12 13 13 13 13 13 12 13
16 16 18 19 19 22 27 21 20 15 16 19 9 17 18 18 17 17 17 18 20 22 19 18 15 16 19 20 19 15 15 15 16 17 19 17 17 15 14 14 12 11 12 12 12 13 14 13 14
15 17 19 26 26 24 38 22 23 22 22 14 17 25 22 19 19 21 18 19 23 22 18 16 16 16 17 18 19 17 17 18 19 20 21 19 19 18 16 14 13 13 13 13 12 13 14 15 14
15 15 17 22 30 29 43 25 23 26 25 21 24 25 19 21 21 21 19 20 24 22 19 18 17 17 17 15 15 18 19 20 21 21 22 22 21 20 17 17 15 16 16 15 14 14 15 15 15
15 17 18 26 32 33 37 28 26 18 20 23 24 24 24 21 19 19 21 22 24 24 23 20 18 17 18 16 16 17 19 21 22 23 23 23 22 22 20 21 19 17 17 17 17 17 17 17 16
19 18 24 30 28 31 34 27 24 20 22 25 26 22 20 19 18 21 24 26 25 26 27 25 20 17 18 18 18 18 19 20 22 23 23 24 24 23 23 22 21 20 20 19 19 19 19 18 18
20 21 24 27 28 29 32 30 24 21 23 28 22 20 20 20 22 22 23 26 26 26 28 25 24 22 20 20 19 19 20 20 21 23 24 25 26 26 26 24 24 24 24 22 21 19 19 19 18
22 23 23 26 25 27 30 29 25 24 24 23 22 21 22 23 22 21 22 23 24 23 24 25 27 25 24 22 19 21 22 22 23 22 24 24 26 26 28 27 27 28 27 28 26 24 23 22 20
26 24 23 25 24 25 26 28 25 23 25 23 22 22 23 22 22 22 22 24 24 24 23 23 25 24 24 24 22 21 23 24 25 25 25 26 27 27 30 31 30 29 30 30 29 29 28 27 26
26 26 26 25 24 24 26 26 25 27 21 24 23 23 26 25 25 25 25 25 26 26 25 24 26 25 25 25 26 24 23 24 26 29 28 29 29 30 31 34 34 34 32 32 32 31 32 31 30
29 30 28 25 27 27 27 25 31 27 25 27 25 27 29 27 27 27 26 26 28 28 29 28 27 26 28 29 30 30 30 27 29 30 31 33 34 35 35 36 36 36 34 35 36 34 34 35 35
32 30 30 29 29 31 29 25 36 26 28 31 28 30 30 30 29 29 28 26 28 30 30 30 29 28 28 28 30 32 32 32 32 33 35 37 38 38 40 41 41 40 40 38 39 38 38 38 37
30 33 33 35 33 33 33 31 35 33 31 33 33 33 34 34 33 33 31 31 30 31 32 32 30 30 31 29 29 31 33 35 36 37 37 39 40 42 44 44 45 46 45 44 44 43 43 42 41
36 40 38 37 36 36 36 36 36 38 35 36 35 36 36 36 35 34 34 33 33 33 33 33 33 33 32 31 32 35 36 37 39 41 41 42 43 44 45 46 49 50 50 50 49 48 49 49 47
36 43 42 42 41 43 40 40 38 40 40 39 39 38 39 38 38 37 36 36 35 35 35 35 35 35 35 35 35 37 39 42 43 43 45 46 48 49 50 50 52 52 54 53 54 51 52 53 53
35 43 45 44 44 47 45 45 38 38 44 44 40 44 40 40 38 38 37 38 38 38 38 37 37 38 40 40 41 42 43 44 47 49 50 51 53 54 55 56 57 59 60 59 59 58 55 57 57
40 39 45 49 46 50 47 52 45 48 51 46 45 44 44 42 41 40 40 40 40 40 41 41 42 43 44 46 48 48 50 52 53 54 55 55 56 57 58 59 60 61 63 64 63 62 62 61 61
41 42 48 55 51 54 54 55 51 48 52 48 45 46 46 45 44 43 43 44 43 44 45 45 44 46 49 51 53 54 57 58 58 58 57 57 58 57 58 59 60 62 65 68 67 67 65 64 65
48 46 50 51 54 60 53 56 55 48 44 53 45 45 47 47 46 43 43 44 43 44 45 46 49 52 54 56 58 60 59 59 60 60 60 61 61 62 61 61 62 62 63 65 68 71 72 69 67
53 46 47 48 54 60 53 55 53 51 53 57 45 38 41 44 46 47 46 47 47 48 50 52 54 56 57 58 59 61 64 66 67 67 67 67 66 64 63 64 64 65 65 65 65 69 72 74 73
48 48 47 48 46 47 33 53 47 58 54 52 48 44 41 43 45 48 51 51 52 53 53 54 57 58 59 62 65 67 69 69 69 70 70 70 71 71 69 67 66 66 67 67 68 68 71 75 78
46 44 38 43 48 50 51 54 57 54 53 52 49 46 43 44 46 48 49 50 51 53 55 56 56 58 61 64 65 67 68 67 67 69 70 71 73 75 73 70 66 67 67 68 69 71 72 74 75
45 47 44 49 50 49 50 52 56 55 54 52 50 47 45 43 46 48 50 52 54 56 59 59 60 61 63 64 64 63 62 63 64 66 68 71 71 69 69 69 69 69 69 69 68 67 69 72 71
45 47 44 43 43 45 47 44 45 54 55 53 51 50 50 50 52 55 57 58 59 59 59 62 63 61 62 59 59 60 61 64 69 71 71 71 71 73 74 73 71 72 74 78 80 82 83 84 83
43 43 42 46 46 42 46 48 53 56 57 58 57 60 60 60 61 61 62 62 63 63 63 62 60 58 60 59 62 63 67 72 76 76 76 78 77 75 75 78 81 84 88 92 95 96 97 98 98
Wind_Direction
279 279 264 259 260 257 223 235 257 242 236 240 241 241 237 239 201 221 212 233 237 249 262 266 272 283 295 311 306 285 285 292 305 317 327 332 331 327 322 317 308 308 321 325 327 313 298 296 294
272 271 261 252 256 262 248 236 234 238 234 226 232 231 242 232 218 229 239 246 246 256 280 284 277 275 282 295 297 282 268 275 293 312 322 324 326 324 319 313 310 313 321 322 327 318 300 293 292
265 261 259 244 231 200 244 248 232 229 229 218 234 231 222 238 239 249 258 261 261 265 295 301 278 277 281 289 288 283 258 261 278 298 306 312 315 320 322 313 308 303 313 319 324 321 306 290 290
256 252 252 245 234 224 216 244 243 227 227 230 233 234 246 248 256 264 272 276 268 274 279 291 280 275 276 277 275 273 260 251 265 281 294 303 304 311 320 313 306 300 299 310 321 322 318 295 287
248 247 247 242 230 236 245 256 248 226 220 233 229 244 241 246 253 261 265 272 273 279 280 279 269 268 275 281 273 266 257 253 262 272 288 299 304 308 316 312 304 297 290 298 311 315 322 319 299
244 243 241 237 248 245 246 252 251 237 231 223 217 237 247 254 260 269 279 277 288 289 289 284 268 265 267 269 266 264 257 253 257 266 279 288 293 296 306 310 302 298 291 288 298 307 307 317 321
246 240 231 223 229 244 255 249 258 244 238 222 213 238 249 257 262 275 285 284 283 283 288 289 275 270 271 267 261 259 264 267 266 268 270 272 279 280 288 295 293 300 301 297 294 304 307 307 313
249 247 238 231 238 246 258 255 258 254 236 263 234 227 252 260 269 275 270 278 276 286 289 287 277 266 261 263 264 265 260 260 265 268 269 270 275 274 282 281 285 289 290 294 291 296 305 304 306
247 243 234 232 236 242 254 255 264 256 258 237 239 250 265 258 263 264 269 272 273 280 276 269 269 270 262 257 257 259 260 263 265 265 264 269 273 270 271 273 277 286 288 287 285 289 298 299 300
244 237 228 228 236 240 255 255 258 242 233 239 246 246 250 253 253 257 263 264 266 269 269 264 262 268 268 268 263 257 258 260 264 266 268 270 269 268 268 269 275 282 285 288 288 291 295 296 292
244 233 229 243 242 247 256 258 251 237 233 241 247 248 249 250 251 254 259 265 271 274 275 275 276 276 272 272 271 274 270 270 268 268 267 269 267 263 261 263 271 278 279 282 286 288 290 290 290
243 235 235 242 246 250 255 251 250 236 228 233 244 245 242 242 244 249 256 264 271 277 281 282 285 284 280 275 270 271 271 270 273 271 268 269 270 272 271 269 274 274 275 274 275 279 282 284 284
246 239 236 240 244 249 255 255 246 238 233 240 239 237 238 241 246 255 262 265 268 268 268 270 277 279 283 283 279 276 275 272 271 271 273 272 271 272 275 278 280 281 280 280 282 280 277 276 275
246 244 237 241 242 247 251 252 249 244 240 241 237 235 240 247 253 259 264 268 265 264 265 269 273 278 283 286 287 287 283 280 278 275 275 276 272 273 273 274 275 278 281 282 282 281 281 280 280
246 243 238 239 240 242 246 246 250 246 237 241 234 237 243 247 252 257 262 266 268 270 270 268 269 274 279 283 283 281 281 286 284 282 278 276 274 271 272 274 275 277 279 278 279 280 280 279 280
244 240 241 236 236 238 243 242 248 241 242 247 241 238 242 245 250 257 259 262 264 265 268 270 272 275 281 283 281 282 280 276 277 279 281 279 276 276 274 273 273 274 276 279 279 278 276 276 278
249 243 242 238 234 236 236 238 247 239 242 247 245 250 249 251 253 254 256 258 262 264 268 271 273 275 274 276 281 284 287 287 283 281 281 280 281 280 279 279 280 280 277 275 277 278 276 275 273
257 250 242 240 240 232 234 234 244 251 243 247 251 249 252 252 252 252 251 252 252 256 260 262 263 265 269 273 275 278 280 283 284 283 283 282 282 282 281 281 280 279 279 279 277 275 274 273 273
245 242 242 240 236 233 237 239 241 254 252 251 251 253 255 257 257 256 260 257 255 255 256 256 257 257 260 267 274 277 278 278 278 279 280 281 281 280 280 280 280 280 280 277 276 275 275 274 271
251 247 246 246 245 242 237 239 243 250 255 256 255 255 257 259 262 265 267 266 262 258 256 256 258 257 260 268 272 275 278 279 279 281 281 280 280 280 279 278 276 274 275 276 277 278 277 276 277
254 253 245 250 249 246 244 243 240 250 255 255 259 260 258 259 261 264 265 265 265 263 262 261 262 263 266 272 277 280 281 281 282 283 283 281 282 282 281 281 281 283 282 281 280 278 277 275 274
256 257 248 246 246 250 249 248 240 242 248 251 257 261 264 264 263 264 263 261 260 260 262 265 266 267 269 273 278 279 280 280 281 279 279 279 279 279 279 279 279 280 281 281 281 279 278 275 274
258 255 250 242 243 244 245 251 248 246 253 247 252 257 261 266 267 264 264 263 263 264 265 268 269 269 270 272 275 279 280 279 279 279 277 275 275 275 276 276 276 275 275 277 277 276 275 274 273
253 252 255 249 243 245 245 249 249 253 257 258 248 252 257 260 263 264 265 266 266 269 271 272 272 272 273 275 277 279 278 278 279 278 277 277 276 276 275 274 273 271 272 273 274 274 274 272 272
250 246 252 253 246 249 249 252 254 259 256 260 263 257 258 259 259 259 261 263 265 268 271 273 274 275 275 276 278 279 280 280 280 280 279 278 276 276 276 275 275 274 272 271 270 271 272 273 272
255 248 242 251 254 253 254 254 253 254 261 263 268 265 262 262 259 259 261 263 265 269 271 272 274 276 277 278 279 280 280 280 280 280 280 280 281 281 279 277 276 275 275 274 272 268 265 265 267
247 244 244 247 252 253 252 251 259 261 261 265 266 268 268 266 263 262 264 266 268 270 272 274 274 275 276 277 277 277 278 279 280 281 281 281 281 280 279 277 276 275 274 270 269 270 271 272 271
236 244 241 245 251 250 254 253 258 264 265 267 273 276 274 270 266 268 269 270 270 269 271 273 275 276 277 278 279 280 280 281 279 277 274 273 273 275 274 275 274 273 273 272 270 269 270 270 269
233 241 241 245 246 251 254 253 257 264 268 273 276 278 278 278 277 276 275 274 274 275 277 279 280 283 284 284 285 285 284 282 279 277 279 279 279 279 280 281 281 280 279 278 277 278 276 274 272
237 237 238 239 245 249 256 254 256 259 265 271 277 280 282 283 283 281 280 279 280 283 283 284 284 283 285 286 284 286 283 282 283 284 284 283 283 286 285 286 286 286 285 284 284 282 280 277 274